Time,TemperatureF,DewpointF,PressureIn,WindDirection,WindDirectionDegrees,WindSpeedMPH,WindSpeedGustMPH,Humidity,HourlyPrecipIn,Conditions,Clouds,dailyrainin,SoftwareType,DateUTC
2013-05-23 00:00:00,64.6,36.3,29.29,SW,225,0.0,0.0,35,0.00,,,0.00,VWS V13.01,2013-05-23 05:00:00,
2013-05-23 00:05:00,64.6,36.3,29.29,SW,225,2.7,7.2,35,0.00,,,0.00,VWS V13.01,2013-05-23 05:05:00,
2013-05-23 00:10:00,64.6,36.3,29.29,SW,225,2.2,5.8,35,0.00,,,0.00,VWS V13.01,2013-05-23 05:10:00,
2013-05-23 00:15:00,64.4,36.2,29.29,SW,225,6.3,6.3,35,0.00,,,0.00,VWS V13.01,2013-05-23 05:15:00,
2013-05-23 00:20:00,64.4,36.2,29.29,SW,225,0.0,4.0,35,0.00,,,0.00,VWS V13.01,2013-05-23 05:20:00,
2013-05-23 00:25:00,64.4,36.2,29.29,South,180,2.2,2.2,35,0.00,,,0.00,VWS V13.01,2013-05-23 05:25:00,
2013-05-23 00:30:00,64.2,36.7,29.32,West,270,2.7,7.2,36,0.00,,,0.00,VWS V13.01,2013-05-23 05:30:00,
2013-05-23 00:35:00,64.2,36.7,29.32,SW,225,4.0,5.4,36,0.00,,,0.00,VWS V13.01,2013-05-23 05:35:00,
2013-05-23 00:40:00,64.2,36.7,29.32,SW,225,5.8,7.6,36,0.00,,,0.00,VWS V13.01,2013-05-23 05:40:00,
2013-05-23 00:45:00,64.0,36.6,29.29,SW,225,4.9,7.2,36,0.00,,,0.00,VWS V13.01,2013-05-23 05:45:00,
2013-05-23 00:50:00,64.0,36.6,29.29,SW,225,4.9,8.3,36,0.00,,,0.00,VWS V13.01,2013-05-23 05:50:00,
2013-05-23 00:55:00,63.9,36.4,29.29,West,270,4.9,4.9,36,0.00,,,0.00,VWS V13.01,2013-05-23 05:55:00,
2013-05-23 01:00:00,63.9,37.1,29.29,SW,225,0.0,6.7,37,0.00,,,0.00,VWS V13.01,2013-05-23 06:00:00,
2013-05-23 01:06:00,63.9,37.1,29.29,West,270,5.4,8.1,37,0.00,,,0.00,VWS V13.01,2013-05-23 06:06:00,
2013-05-23 01:11:00,63.7,37.0,29.29,SW,225,4.5,6.3,37,0.00,,,0.00,VWS V13.01,2013-05-23 06:11:00,
2013-05-23 01:16:00,63.7,37.6,29.29,SW,225,7.6,8.1,38,0.00,,,0.00,VWS V13.01,2013-05-23 06:16:00,
2013-05-23 01:21:00,63.5,37.5,29.29,West,270,5.4,8.7,38,0.00,,,0.00,VWS V13.01,2013-05-23 06:21:00,
2013-05-23 01:26:00,63.5,38.1,29.29,SW,225,8.1,8.1,39,0.00,,,0.00,VWS V13.01,2013-05-23 06:26:00,
2013-05-23 01:31:00,63.5,38.1,29.29,West,270,7.6,8.1,39,0.00,,,0.00,VWS V13.01,2013-05-23 06:31:00,
2013-05-23 01:36:00,63.5,38.8,29.29,SW,225,4.0,4.0,40,0.00,,,0.00,VWS V13.01,2013-05-23 06:36:00,
2013-05-23 01:41:00,63.3,39.2,29.29,SW,225,4.0,7.2,41,0.00,,,0.00,VWS V13.01,2013-05-23 06:41:00,
2013-05-23 01:46:00,63.1,39.7,29.32,West,270,5.8,5.8,42,0.00,,,0.00,VWS V13.01,2013-05-23 06:46:00,
2013-05-23 01:51:00,63.1,40.3,29.32,WNW,292,0.0,0.0,43,0.00,,,0.00,VWS V13.01,2013-05-23 06:51:00,
2013-05-23 01:56:00,63.0,40.1,29.32,SW,225,6.3,6.3,43,0.00,,,0.00,VWS V13.01,2013-05-23 06:56:00,
2013-05-23 02:01:00,63.0,40.7,29.29,West,270,4.9,5.8,44,0.00,,,0.00,VWS V13.01,2013-05-23 07:01:00,
2013-05-23 02:06:00,63.0,40.7,29.29,West,270,0.0,0.0,44,0.00,,,0.00,VWS V13.01,2013-05-23 07:06:00,
2013-05-23 02:11:00,63.0,40.7,29.29,West,270,0.0,0.0,44,0.00,,,0.00,VWS V13.01,2013-05-23 07:11:00,
2013-05-23 02:16:00,63.0,40.7,29.32,SW,225,7.2,7.2,44,0.00,,,0.00,VWS V13.01,2013-05-23 07:16:00,
2013-05-23 02:21:00,62.8,41.2,29.32,West,270,12.8,12.8,45,0.00,,,0.00,VWS V13.01,2013-05-23 07:21:00,
2013-05-23 02:26:00,63.0,40.1,29.29,West,270,10.1,10.1,43,0.00,,,0.00,VWS V13.01,2013-05-23 07:26:00,
2013-05-23 02:31:00,63.0,40.1,29.29,SW,225,4.5,11.0,43,0.00,,,0.00,VWS V13.01,2013-05-23 07:31:00,
2013-05-23 02:36:00,63.0,40.1,29.29,West,270,5.8,8.7,43,0.00,,,0.00,VWS V13.01,2013-05-23 07:36:00,
2013-05-23 02:42:00,63.0,39.5,29.29,West,270,5.8,8.1,42,0.00,,,0.00,VWS V13.01,2013-05-23 07:42:00,
2013-05-23 02:47:00,63.0,40.1,29.29,West,270,3.6,3.6,43,0.00,,,0.00,VWS V13.01,2013-05-23 07:47:00,
2013-05-23 02:57:00,62.8,40.6,29.29,West,270,4.9,7.2,44,0.00,,,0.00,VWS V13.01,2013-05-23 07:57:00,
2013-05-23 03:02:00,62.8,39.4,29.29,West,270,6.3,7.2,42,0.00,,,0.00,VWS V13.01,2013-05-23 08:02:00,
2013-05-23 03:07:00,62.8,40.0,29.29,West,270,2.7,2.7,43,0.00,,,0.00,VWS V13.01,2013-05-23 08:07:00,
2013-05-23 03:12:00,62.6,39.8,29.29,WNW,292,5.8,8.3,43,0.00,,,0.00,VWS V13.01,2013-05-23 08:12:00,
2013-05-23 03:17:00,62.6,38.6,29.29,West,270,0.0,0.0,41,0.00,,,0.00,VWS V13.01,2013-05-23 08:17:00,
2013-05-23 03:22:00,62.6,38.0,29.29,West,270,5.8,5.8,40,0.00,,,0.00,VWS V13.01,2013-05-23 08:22:00,
2013-05-23 03:27:00,62.6,38.6,29.29,West,270,5.8,5.8,41,0.00,,,0.00,VWS V13.01,2013-05-23 08:27:00,
2013-05-23 03:32:00,62.6,39.2,29.29,West,270,5.8,5.8,42,0.00,,,0.00,VWS V13.01,2013-05-23 08:32:00,
2013-05-23 03:37:00,62.6,39.2,29.29,West,270,5.8,5.8,42,0.00,,,0.00,VWS V13.01,2013-05-23 08:37:00,
2013-05-23 03:42:00,62.4,40.2,29.29,West,270,5.8,5.8,44,0.00,,,0.00,VWS V13.01,2013-05-23 08:42:00,
2013-05-23 03:47:00,62.2,40.1,29.29,West,270,8.7,8.7,44,0.00,,,0.00,VWS V13.01,2013-05-23 08:47:00,
2013-05-23 03:52:00,62.2,39.5,29.29,NW,315,4.9,8.3,43,0.00,,,0.00,VWS V13.01,2013-05-23 08:52:00,
2013-05-23 03:57:00,62.2,39.5,29.29,SW,225,6.3,8.7,43,0.00,,,0.00,VWS V13.01,2013-05-23 08:57:00,
2013-05-23 04:02:00,62.1,38.1,29.29,West,270,7.2,8.3,41,0.00,,,0.00,VWS V13.01,2013-05-23 09:02:00,
2013-05-23 04:07:00,62.1,37.5,29.29,West,270,8.3,8.3,40,0.00,,,0.00,VWS V13.01,2013-05-23 09:07:00,
2013-05-23 04:12:00,62.1,36.8,29.29,West,270,6.3,10.1,39,0.00,,,0.00,VWS V13.01,2013-05-23 09:12:00,
2013-05-23 04:17:00,62.1,36.2,29.29,SW,225,7.6,8.1,38,0.00,,,0.00,VWS V13.01,2013-05-23 09:17:00,
2013-05-23 04:22:00,61.9,36.0,29.29,SW,225,7.6,12.3,38,0.00,,,0.00,VWS V13.01,2013-05-23 09:22:00,
2013-05-23 04:27:00,62.1,36.2,29.29,West,270,8.1,11.0,38,0.00,,,0.00,VWS V13.01,2013-05-23 09:27:00,
2013-05-23 04:32:00,62.1,35.5,29.29,West,270,7.6,13.2,37,0.00,,,0.00,VWS V13.01,2013-05-23 09:32:00,
2013-05-23 04:38:00,62.1,35.5,29.29,West,270,8.7,9.6,37,0.00,,,0.00,VWS V13.01,2013-05-23 09:38:00,
2013-05-23 04:43:00,62.1,36.2,29.29,West,270,5.8,10.5,38,0.00,,,0.00,VWS V13.01,2013-05-23 09:43:00,
2013-05-23 04:48:00,61.9,36.0,29.29,West,270,7.2,8.7,38,0.00,,,0.00,VWS V13.01,2013-05-23 09:48:00,
2013-05-23 04:53:00,61.9,36.0,29.29,West,270,6.3,12.3,38,0.00,,,0.00,VWS V13.01,2013-05-23 09:53:00,
2013-05-23 04:58:00,61.9,36.7,29.29,West,270,0.0,7.2,39,0.00,,,0.00,VWS V13.01,2013-05-23 09:58:00,
2013-05-23 05:03:00,61.7,36.5,29.29,SW,225,2.2,4.0,39,0.00,,,0.00,VWS V13.01,2013-05-23 10:03:00,
2013-05-23 05:08:00,61.7,37.2,29.29,West,270,0.0,0.0,40,0.00,,,0.00,VWS V13.01,2013-05-23 10:08:00,
2013-05-23 05:13:00,61.7,37.8,29.32,West,270,0.0,0.0,41,0.00,,,0.00,VWS V13.01,2013-05-23 10:13:00,
2013-05-23 05:18:00,61.5,37.6,29.32,West,270,7.6,7.6,41,0.00,,,0.00,VWS V13.01,2013-05-23 10:18:00,
2013-05-23 05:23:00,61.3,37.5,29.32,West,270,9.6,9.6,41,0.00,,,0.00,VWS V13.01,2013-05-23 10:23:00,
2013-05-23 05:28:00,61.3,36.8,29.29,West,270,10.5,13.2,40,0.00,,,0.00,VWS V13.01,2013-05-23 10:28:00,
2013-05-23 05:33:00,61.3,36.2,29.29,West,270,0.0,8.1,39,0.00,,,0.00,VWS V13.01,2013-05-23 10:33:00,
2013-05-23 05:38:00,61.3,36.2,29.29,West,270,8.1,11.0,39,0.00,,,0.00,VWS V13.01,2013-05-23 10:38:00,
2013-05-23 05:43:00,61.2,36.0,29.29,West,270,8.3,10.5,39,0.00,,,0.00,VWS V13.01,2013-05-23 10:43:00,
2013-05-23 05:48:00,61.2,36.0,29.32,West,270,8.1,12.8,39,0.00,,,0.00,VWS V13.01,2013-05-23 10:48:00,
2013-05-23 05:53:00,61.0,35.9,29.32,SW,225,6.3,9.6,39,0.00,,,0.00,VWS V13.01,2013-05-23 10:53:00,
2013-05-23 05:58:00,61.0,35.9,29.32,West,270,10.5,10.5,39,0.00,,,0.00,VWS V13.01,2013-05-23 10:58:00,
2013-05-23 06:03:00,61.0,35.9,29.32,West,270,7.6,9.6,39,0.00,,,0.00,VWS V13.01,2013-05-23 11:03:00,
2013-05-23 06:09:00,61.0,35.9,29.32,West,270,9.6,16.3,39,0.00,,,0.00,VWS V13.01,2013-05-23 11:09:00,
2013-05-23 06:14:00,61.0,35.9,29.32,West,270,4.0,4.0,39,0.00,,,0.00,VWS V13.01,2013-05-23 11:14:00,
2013-05-23 06:19:00,60.8,35.7,29.32,West,270,5.8,5.8,39,0.00,,,0.00,VWS V13.01,2013-05-23 11:19:00,
2013-05-23 06:24:00,60.8,35.1,29.32,WNW,292,5.8,10.1,38,0.00,,,0.00,VWS V13.01,2013-05-23 11:24:00,
2013-05-23 06:29:00,60.8,35.7,29.32,West,270,7.6,8.7,39,0.00,,,0.00,VWS V13.01,2013-05-23 11:29:00,
2013-05-23 06:34:00,60.6,35.5,29.32,West,270,7.6,11.0,39,0.00,,,0.00,VWS V13.01,2013-05-23 11:34:00,
2013-05-23 06:39:00,60.6,35.5,29.32,West,270,6.3,8.7,39,0.00,,,0.00,VWS V13.01,2013-05-23 11:39:00,
2013-05-23 06:44:00,60.6,35.5,29.32,West,270,9.6,9.6,39,0.00,,,0.00,VWS V13.01,2013-05-23 11:44:00,
2013-05-23 06:49:00,60.6,36.2,29.32,West,270,11.9,11.9,40,0.00,,,0.00,VWS V13.01,2013-05-23 11:49:00,
2013-05-23 06:54:00,60.4,36.0,29.32,West,270,5.4,9.2,40,0.00,,,0.00,VWS V13.01,2013-05-23 11:54:00,
2013-05-23 07:00:00,60.4,36.0,29.35,West,270,9.6,15.0,40,0.00,,,0.00,VWS V13.01,2013-05-23 12:00:00,
2013-05-23 07:05:00,60.3,35.9,29.35,West,270,8.3,14.5,40,0.00,,,0.00,VWS V13.01,2013-05-23 12:05:00,
2013-05-23 07:10:00,60.3,35.2,29.35,West,270,11.0,12.3,39,0.00,,,0.00,VWS V13.01,2013-05-23 12:10:00,
2013-05-23 07:15:00,60.3,35.9,29.35,West,270,10.1,12.3,40,0.00,,,0.00,VWS V13.01,2013-05-23 12:15:00,
2013-05-23 07:20:00,60.3,35.9,29.35,West,270,8.1,14.1,40,0.00,,,0.00,VWS V13.01,2013-05-23 12:20:00,
2013-05-23 07:25:00,60.1,35.7,29.35,West,270,8.3,8.3,40,0.00,,,0.00,VWS V13.01,2013-05-23 12:25:00,
2013-05-23 07:30:00,60.1,36.3,29.35,West,270,8.3,8.3,41,0.00,,,0.00,VWS V13.01,2013-05-23 12:30:00,
2013-05-23 07:35:00,59.9,35.5,29.35,West,270,12.3,12.3,40,0.00,,,0.00,VWS V13.01,2013-05-23 12:35:00,
2013-05-23 07:40:00,60.1,36.3,29.35,West,270,5.8,5.8,41,0.00,,,0.00,VWS V13.01,2013-05-23 12:40:00,
2013-05-23 07:45:00,60.1,36.3,29.35,SW,225,11.0,11.0,41,0.00,,,0.00,VWS V13.01,2013-05-23 12:45:00,
2013-05-23 07:50:00,60.1,36.3,29.35,SW,225,6.7,6.7,41,0.00,,,0.00,VWS V13.01,2013-05-23 12:50:00,
2013-05-23 07:55:00,59.9,36.8,29.35,West,270,8.7,8.7,42,0.00,,,0.00,VWS V13.01,2013-05-23 12:55:00,
2013-05-23 08:00:00,59.9,36.8,29.35,West,270,5.4,6.3,42,0.00,,,0.00,VWS V13.01,2013-05-23 13:00:00,
2013-05-23 08:05:00,60.1,35.7,29.35,West,270,11.0,11.0,40,0.00,,,0.00,VWS V13.01,2013-05-23 13:05:00,
2013-05-23 08:10:00,60.1,35.7,29.35,SW,225,9.6,10.1,40,0.00,,,0.00,VWS V13.01,2013-05-23 13:10:00,
2013-05-23 08:15:00,60.3,35.2,29.38,NW,315,5.8,10.1,39,0.00,,,0.00,VWS V13.01,2013-05-23 13:15:00,
2013-05-23 08:20:00,60.3,34.6,29.38,West,270,7.6,7.6,38,0.00,,,0.00,VWS V13.01,2013-05-23 13:20:00,
2013-05-23 08:25:00,60.8,34.4,29.38,West,270,15.4,15.4,37,0.00,,,0.00,VWS V13.01,2013-05-23 13:25:00,
2013-05-23 08:30:00,61.9,34.7,29.35,West,270,6.7,13.6,36,0.00,,,0.00,VWS V13.01,2013-05-23 13:30:00,
2013-05-23 08:35:00,62.2,35.0,29.35,SW,225,14.1,14.1,36,0.00,,,0.00,VWS V13.01,2013-05-23 13:35:00,
2013-05-23 08:40:00,62.6,34.6,29.35,North,0,6.3,11.0,35,0.00,,,0.00,VWS V13.01,2013-05-23 13:40:00,
2013-05-23 08:46:00,61.9,34.7,29.38,West,270,7.2,10.1,36,0.00,,,0.00,VWS V13.01,2013-05-23 13:46:00,
2013-05-23 08:51:00,61.3,34.2,29.38,NW,315,4.0,8.1,36,0.00,,,0.00,VWS V13.01,2013-05-23 13:51:00,
2013-05-23 08:56:00,61.2,34.7,29.38,West,270,8.3,8.3,37,0.00,,,0.00,VWS V13.01,2013-05-23 13:56:00,
2013-05-23 09:01:00,61.2,34.7,29.38,West,270,15.0,15.0,37,0.00,,,0.00,VWS V13.01,2013-05-23 14:01:00,
2013-05-23 09:06:00,61.5,35.7,29.38,West,270,5.8,5.8,38,0.00,,,0.00,VWS V13.01,2013-05-23 14:06:00,
2013-05-23 09:11:00,61.7,35.2,29.38,West,270,5.4,5.4,37,0.00,,,0.00,VWS V13.01,2013-05-23 14:11:00,
2013-05-23 09:16:00,62.2,36.3,29.38,WNW,292,7.2,10.5,38,0.00,,,0.00,VWS V13.01,2013-05-23 14:16:00,
2013-05-23 09:21:00,61.9,36.0,29.38,NW,315,11.0,12.3,38,0.00,,,0.00,VWS V13.01,2013-05-23 14:21:00,
2013-05-23 09:26:00,61.7,35.9,29.38,SW,225,9.6,9.6,38,0.00,,,0.00,VWS V13.01,2013-05-23 14:26:00,
2013-05-23 09:31:00,61.5,35.7,29.38,West,270,6.3,7.2,38,0.00,,,0.00,VWS V13.01,2013-05-23 14:31:00,
2013-05-23 09:36:00,61.3,35.5,29.38,West,270,10.5,10.5,38,0.00,,,0.00,VWS V13.01,2013-05-23 14:36:00,
2013-05-23 09:41:00,61.3,36.2,29.38,West,270,10.5,10.5,39,0.00,,,0.00,VWS V13.01,2013-05-23 14:41:00,
2013-05-23 09:46:00,61.3,36.2,29.38,NW,315,11.0,11.0,39,0.00,,,0.00,VWS V13.01,2013-05-23 14:46:00,
2013-05-23 09:51:00,61.2,36.0,29.38,West,270,11.0,11.0,39,0.00,,,0.00,VWS V13.01,2013-05-23 14:51:00,
2013-05-23 09:56:00,61.0,36.5,29.38,NW,315,8.1,8.1,40,0.00,,,0.00,VWS V13.01,2013-05-23 14:56:00,
2013-05-23 10:01:00,61.2,37.3,29.41,West,270,7.6,7.6,41,0.00,,,0.00,VWS V13.01,2013-05-23 15:01:00,
2013-05-23 10:06:00,61.2,37.3,29.41,West,270,6.3,8.3,41,0.00,,,0.00,VWS V13.01,2013-05-23 15:06:00,
2013-05-23 10:11:00,61.2,37.3,29.41,West,270,8.7,8.7,41,0.00,,,0.00,VWS V13.01,2013-05-23 15:11:00,
2013-05-23 10:16:00,61.2,37.3,29.41,NNW,338,0.0,7.2,41,0.00,,,0.00,VWS V13.01,2013-05-23 15:16:00,
2013-05-23 10:21:00,61.3,36.8,29.41,West,270,8.7,8.7,40,0.00,,,0.00,VWS V13.01,2013-05-23 15:21:00,
2013-05-23 10:26:00,61.5,37.6,29.41,West,270,3.1,8.7,41,0.00,,,0.00,VWS V13.01,2013-05-23 15:26:00,
2013-05-23 10:31:00,61.9,37.3,29.38,West,270,8.3,10.1,40,0.00,,,0.00,VWS V13.01,2013-05-23 15:31:00,
2013-05-23 10:36:00,62.1,37.5,29.38,West,270,8.3,9.6,40,0.00,,,0.00,VWS V13.01,2013-05-23 15:36:00,
2013-05-23 10:41:00,61.9,36.7,29.38,West,270,10.5,12.8,39,0.00,,,0.00,VWS V13.01,2013-05-23 15:41:00,
2013-05-23 10:46:00,62.2,37.6,29.38,NW,315,5.4,8.7,40,0.00,,,0.00,VWS V13.01,2013-05-23 15:46:00,
2013-05-23 10:51:00,63.1,38.5,29.38,NW,315,4.0,4.9,40,0.00,,,0.00,VWS V13.01,2013-05-23 15:51:00,
2013-05-23 10:56:00,63.1,37.1,29.41,NW,315,4.9,8.3,38,0.00,,,0.00,VWS V13.01,2013-05-23 15:56:00,
2013-05-23 11:01:00,63.0,37.6,29.41,West,270,5.8,10.1,39,0.00,,,0.00,VWS V13.01,2013-05-23 16:01:00,
2013-05-23 11:06:00,63.0,37.6,29.41,West,270,5.8,5.8,39,0.00,,,0.00,VWS V13.01,2013-05-23 16:06:00,
2013-05-23 11:12:00,63.0,37.6,29.41,West,270,0.0,0.0,39,0.00,,,0.00,VWS V13.01,2013-05-23 16:12:00,
2013-05-23 11:17:00,62.6,38.0,29.41,SW,225,0.0,7.2,40,0.00,,,0.00,VWS V13.01,2013-05-23 16:17:00,
2013-05-23 11:22:00,62.6,38.6,29.41,West,270,4.5,4.5,41,0.00,,,0.00,VWS V13.01,2013-05-23 16:22:00,
2013-05-23 11:27:00,62.6,38.6,29.41,SW,225,5.8,10.1,41,0.00,,,0.00,VWS V13.01,2013-05-23 16:27:00,
2013-05-23 11:32:00,62.6,38.6,29.41,West,270,0.0,7.6,41,0.00,,,0.00,VWS V13.01,2013-05-23 16:32:00,
2013-05-23 11:37:00,62.6,38.6,29.41,West,270,6.3,6.3,41,0.00,,,0.00,VWS V13.01,2013-05-23 16:37:00,
2013-05-23 11:42:00,62.6,38.6,29.44,WNW,292,8.7,8.7,41,0.00,,,0.00,VWS V13.01,2013-05-23 16:42:00,
2013-05-23 11:47:00,62.6,38.6,29.44,West,270,10.5,11.0,41,0.00,,,0.00,VWS V13.01,2013-05-23 16:47:00,
2013-05-23 11:52:00,62.6,38.6,29.44,West,270,7.6,7.6,41,0.00,,,0.00,VWS V13.01,2013-05-23 16:52:00,
2013-05-23 11:57:00,62.2,38.9,29.44,NW,315,7.6,17.5,42,0.00,,,0.00,VWS V13.01,2013-05-23 16:57:00,
2013-05-23 12:02:00,62.2,39.5,29.44,West,270,7.6,10.1,43,0.00,,,0.00,VWS V13.01,2013-05-23 17:02:00,
2013-05-23 12:07:00,62.2,40.1,29.44,West,270,7.6,7.6,44,0.00,,,0.00,VWS V13.01,2013-05-23 17:07:00,
2013-05-23 12:12:00,62.2,40.7,29.44,WNW,292,7.6,7.6,45,0.00,,,0.00,VWS V13.01,2013-05-23 17:12:00,
2013-05-23 12:17:00,62.2,40.7,29.44,West,270,6.7,10.1,45,0.00,,,0.00,VWS V13.01,2013-05-23 17:17:00,
2013-05-23 12:22:00,62.2,40.7,29.44,West,270,8.7,13.6,45,0.00,,,0.00,VWS V13.01,2013-05-23 17:22:00,
2013-05-23 12:27:00,62.2,40.7,29.44,West,270,10.1,10.1,45,0.00,,,0.00,VWS V13.01,2013-05-23 17:27:00,
2013-05-23 12:32:00,62.2,41.2,29.44,West,270,6.7,6.7,46,0.00,,,0.00,VWS V13.01,2013-05-23 17:32:00,
2013-05-23 12:37:00,62.2,41.2,29.44,West,270,5.8,11.0,46,0.00,,,0.00,VWS V13.01,2013-05-23 17:37:00,
2013-05-23 12:42:00,62.2,41.8,29.47,SW,225,5.8,5.8,47,0.00,,,0.00,VWS V13.01,2013-05-23 17:42:00,
2013-05-23 12:47:00,62.2,42.9,29.47,West,270,5.8,7.6,49,0.00,,,0.00,VWS V13.01,2013-05-23 17:47:00,
2013-05-23 12:52:00,62.2,42.9,29.47,SW,225,10.1,10.1,49,0.00,,,0.00,VWS V13.01,2013-05-23 17:52:00,
2013-05-23 12:57:00,62.6,42.7,29.47,SW,225,2.7,8.1,48,0.00,,,0.00,VWS V13.01,2013-05-23 17:57:00,
2013-05-23 13:02:00,62.8,42.3,29.47,SW,225,4.5,4.5,47,0.00,,,0.00,VWS V13.01,2013-05-23 18:02:00,
2013-05-23 13:07:00,63.0,42.4,29.47,West,270,5.4,5.4,47,0.00,,,0.00,VWS V13.01,2013-05-23 18:07:00,
2013-05-23 13:12:00,63.0,41.9,29.47,West,270,7.6,10.1,46,0.00,,,0.00,VWS V13.01,2013-05-23 18:12:00,
2013-05-23 13:17:00,63.0,41.9,29.47,West,270,2.7,8.7,46,0.00,,,0.00,VWS V13.01,2013-05-23 18:17:00,
2013-05-23 13:22:00,63.0,41.9,29.47,West,270,5.8,5.8,46,0.00,,,0.00,VWS V13.01,2013-05-23 18:22:00,
2013-05-23 13:27:00,63.1,42.0,29.47,West,270,0.0,10.1,46,0.00,,,0.00,VWS V13.01,2013-05-23 18:27:00,
2013-05-23 13:32:00,63.1,42.6,29.47,WNW,292,4.9,8.1,47,0.00,,,0.00,VWS V13.01,2013-05-23 18:32:00,
2013-05-23 13:37:00,62.8,42.8,29.47,West,270,2.2,4.9,48,0.00,,,0.00,VWS V13.01,2013-05-23 18:37:00,
2013-05-23 13:43:00,62.6,43.7,29.47,West,270,0.0,0.0,50,0.00,,,0.00,VWS V13.01,2013-05-23 18:43:00,
2013-05-23 13:48:00,62.2,45.4,29.47,West,270,7.6,8.1,54,0.00,,,0.00,VWS V13.01,2013-05-23 18:48:00,
2013-05-23 13:53:00,61.7,49.8,29.47,NW,315,0.0,0.0,65,0.00,,,0.00,VWS V13.01,2013-05-23 18:53:00,
2013-05-23 13:58:00,61.5,53.9,29.47,West,270,3.1,7.6,76,0.00,,,0.00,VWS V13.01,2013-05-23 18:58:00,
2013-05-23 14:03:00,61.2,56.3,29.47,WNW,292,0.0,9.6,84,0.04,,,0.04,VWS V13.01,2013-05-23 19:03:00,
2013-05-23 14:08:00,61.3,58.1,29.47,West,270,6.3,6.3,89,0.04,,,0.04,VWS V13.01,2013-05-23 19:08:00,
2013-05-23 14:13:00,61.5,58.9,29.47,NW,315,4.9,4.9,91,0.04,,,0.04,VWS V13.01,2013-05-23 19:13:00,
2013-05-23 14:18:00,61.7,59.4,29.47,NW,315,0.0,0.0,92,0.04,,,0.04,VWS V13.01,2013-05-23 19:18:00,
2013-05-23 14:23:00,61.9,59.5,29.47,NNW,338,2.7,5.4,92,0.04,,,0.04,VWS V13.01,2013-05-23 19:23:00,
2013-05-23 14:28:00,62.4,60.4,29.47,WNW,292,0.0,0.0,93,0.04,,,0.04,VWS V13.01,2013-05-23 19:28:00,
2013-05-23 14:33:00,62.4,60.4,29.47,West,270,4.0,4.0,93,0.04,,,0.04,VWS V13.01,2013-05-23 19:33:00,
2013-05-23 14:38:00,62.6,60.2,29.47,West,270,0.0,0.0,92,0.04,,,0.04,VWS V13.01,2013-05-23 19:38:00,
2013-05-23 14:43:00,62.6,59.9,29.47,West,270,0.0,2.7,91,0.04,,,0.04,VWS V13.01,2013-05-23 19:43:00,
2013-05-23 14:48:00,62.4,59.8,29.47,NW,315,0.0,0.0,91,0.04,,,0.04,VWS V13.01,2013-05-23 19:48:00,
2013-05-23 14:53:00,62.6,59.9,29.47,West,270,0.0,0.0,91,0.04,,,0.04,VWS V13.01,2013-05-23 19:53:00,
2013-05-23 14:58:00,62.6,59.9,29.50,WNW,292,0.0,0.0,91,0.04,,,0.04,VWS V13.01,2013-05-23 19:58:00,
2013-05-23 15:03:00,63.0,60.6,29.50,West,270,0.0,0.0,92,0.00,,,0.04,VWS V13.01,2013-05-23 20:03:00,
2013-05-23 15:08:00,63.1,60.8,29.50,NW,315,7.2,7.2,92,0.00,,,0.04,VWS V13.01,2013-05-23 20:08:00,
2013-05-23 15:13:00,63.0,60.6,29.50,NW,315,3.1,9.6,92,0.00,,,0.04,VWS V13.01,2013-05-23 20:13:00,
2013-05-23 15:18:00,63.0,60.6,29.50,NW,315,9.6,9.6,92,0.00,,,0.04,VWS V13.01,2013-05-23 20:18:00,
2013-05-23 15:24:00,63.0,60.6,29.50,NNW,338,7.6,13.2,92,0.00,,,0.04,VWS V13.01,2013-05-23 20:24:00,
2013-05-23 15:29:00,63.0,60.6,29.50,NNW,338,5.8,6.3,92,0.00,,,0.04,VWS V13.01,2013-05-23 20:29:00,
2013-05-23 15:34:00,63.0,60.6,29.50,NNW,338,4.9,10.1,92,0.00,,,0.04,VWS V13.01,2013-05-23 20:34:00,
2013-05-23 15:39:00,63.0,60.6,29.50,NW,315,4.9,5.8,92,0.00,,,0.04,VWS V13.01,2013-05-23 20:39:00,
2013-05-23 15:44:00,63.5,55.4,29.50,NNW,338,3.6,11.4,75,0.00,,,0.04,VWS V13.01,2013-05-23 20:44:00,
2013-05-23 15:49:00,63.7,54.5,29.50,NE,45,6.3,6.3,72,0.00,,,0.04,VWS V13.01,2013-05-23 20:49:00,
2013-05-23 15:54:00,63.5,53.5,29.50,NW,315,8.1,8.3,70,0.00,,,0.04,VWS V13.01,2013-05-23 20:54:00,
2013-05-23 15:59:00,63.5,52.8,29.50,NE,45,6.7,11.0,68,0.00,,,0.04,VWS V13.01,2013-05-23 20:59:00,
2013-05-23 16:04:00,63.1,51.2,29.50,NW,315,8.1,8.1,65,0.00,,,0.04,VWS V13.01,2013-05-23 21:04:00,
2013-05-23 16:09:00,63.0,50.2,29.50,North,0,3.6,9.6,63,0.00,,,0.04,VWS V13.01,2013-05-23 21:09:00,
2013-05-23 16:14:00,63.1,51.2,29.50,NW,315,10.1,10.1,65,0.00,,,0.04,VWS V13.01,2013-05-23 21:14:00,
2013-05-23 16:19:00,63.1,52.0,29.50,NW,315,7.6,7.6,67,0.00,,,0.04,VWS V13.01,2013-05-23 21:19:00,
2013-05-23 16:24:00,63.5,52.4,29.50,NNE,22,2.2,4.5,67,0.00,,,0.04,VWS V13.01,2013-05-23 21:24:00,
2013-05-23 16:29:00,63.9,52.3,29.50,North,0,0.0,0.0,66,0.00,,,0.04,VWS V13.01,2013-05-23 21:29:00,
2013-05-23 16:34:00,64.0,51.2,29.50,NW,315,5.8,8.1,63,0.00,,,0.04,VWS V13.01,2013-05-23 21:34:00,
2013-05-23 16:39:00,63.9,52.7,29.50,West,270,6.3,6.3,67,0.00,,,0.04,VWS V13.01,2013-05-23 21:39:00,
2013-05-23 16:44:00,62.6,53.1,29.50,West,270,8.1,11.0,71,0.04,,,0.08,VWS V13.01,2013-05-23 21:44:00,
2013-05-23 16:49:00,61.3,53.4,29.50,North,0,4.5,5.4,75,0.04,,,0.08,VWS V13.01,2013-05-23 21:49:00,
2013-05-23 16:54:00,61.0,54.1,29.50,NW,315,5.8,8.1,78,0.04,,,0.08,VWS V13.01,2013-05-23 21:54:00,
2013-05-23 16:59:00,61.0,54.8,29.50,North,0,8.3,8.3,80,0.04,,,0.08,VWS V13.01,2013-05-23 21:59:00,
2013-05-23 17:02:00,61.0,55.1,29.50,NW,315,3.6,4.9,81,0.04,,,0.08,VWS V13.01,2013-05-23 22:02:00,
2013-05-23 17:04:00,61.0,55.1,29.50,NW,315,3.6,4.9,81,0.04,,,0.08,VWS V13.01,2013-05-23 22:04:00,
2013-05-23 17:09:00,61.0,55.1,29.50,NW,315,3.6,4.9,81,0.04,,,0.08,VWS V13.01,2013-05-23 22:09:00,